Temperature
27 26 25 24 23 22 21 21 20 20 20 20 20 20 20 20 19 19 19 19 19 19 19 19 19 19 19 19 19 19 19 19 19 19 19 19 19 19 19 19 19 18 18
27 26 25 24 23 22 21 21 20 20 20 20 20 20 20 20 19 19 19 19 19 19 19 19 19 18 19 18 19 19 19 19 19 19 19 19 19 19 19 19 19 18 18
27 26 25 25 24 22 22 21 21 21 20 20 20 20 20 20 19 19 19 19 19 19 19 19 18 18 18 18 18 18 18 19 19 19 19 19 19 19 19 19 19 19 18
28 26 26 25 24 23 22 21 21 21 20 20 20 20 20 20 19 19 19 19 19 19 19 19 18 18 18 18 18 18 18 18 18 19 19 19 19 19 19 19 19 19 18
28 27 26 25 25 23 22 22 21 21 21 20 20 20 20 20 19 19 19 19 19 19 19 18 18 18 18 18 18 18 18 18 18 18 18 18 19 19 18 18 18 18 18
28 28 27 25 25 24 23 22 21 21 21 21 20 20 20 20 19 19 19 19 19 19 19 18 18 18 18 18 18 18 18 18 18 18 18 18 18 18 18 18 18 18 18
28 27 26 26 25 24 23 22 22 21 21 21 20 20 20 20 19 19 19 19 19 19 19 18 18 18 18 18 18 18 18 18 18 18 18 18 18 18 18 18 18 18 18
29 28 27 26 25 24 23 22 22 21 21 21 21 20 20 20 19 19 19 19 19 19 19 18 18 18 18 17 18 17 17 17 17 17 17 17 17 18 18 18 18 18 18
29 28 27 26 25 24 23 23 22 21 21 21 21 20 20 20 19 19 19 19 19 18 18 18 18 18 18 17 17 17 17 17 17 17 17 17 17 17 17 17 17 17 17
29 28 27 26 25 25 24 23 22 21 21 21 20 20 20 20 19 19 19 19 19 18 18 18 18 18 17 17 18 17 17 17 17 17 17 17 17 17 17 17 17 17 17
28 27 27 26 25 25 24 23 22 21 21 20 20 20 20 19 19 19 19 19 18 18 18 18 18 17 17 17 17 17 17 16 16 16 16 16 17 17 17 17 17 17 17
28 27 27 26 25 24 24 23 22 21 21 20 20 20 19 19 19 19 19 18 18 18 18 18 18 17 17 17 17 17 17 16 16 16 16 16 16 16 16 16 16 16 16
28 27 26 26 25 24 24 23 22 22 21 20 20 20 19 19 19 19 19 18 18 18 18 18 18 17 17 17 17 17 17 16 16 16 16 16 16 16 16 16 16 16 16
27 26 26 25 24 24 23 23 22 22 21 20 20 19 19 19 19 19 18 18 18 18 17 17 17 17 17 17 17 17 16 16 16 16 16 16 16 16 16 16 16 16 16
26 26 25 24 24 23 23 22 22 21 21 20 20 19 19 19 19 18 18 18 18 17 17 17 17 17 17 17 17 16 16 16 16 16 16 16 15 16 16 15 15 15 15
26 25 24 24 23 23 22 22 21 21 20 20 20 19 19 19 18 18 18 18 17 17 17 17 17 17 16 17 16 16 16 16 16 15 16 15 15 15 15 15 15 15 15
26 25 24 23 23 22 22 21 21 20 20 20 19 19 19 18 18 18 18 17 17 17 17 17 17 17 17 16 16 16 16 16 15 15 15 15 15 15 15 15 15 15 15
25 24 24 23 22 22 21 21 20 20 20 19 19 19 18 18 18 18 18 17 17 17 17 17 17 16 16 16 16 16 15 15 15 15 15 15 15 15 15 15 15 15 14
24 24 23 23 22 21 21 20 20 20 19 19 19 18 18 18 18 18 17 17 17 17 16 16 16 16 16 16 16 16 15 15 15 15 15 15 15 14 14 14 14 14 14
24 23 23 22 22 21 21 20 19 19 19 19 18 18 18 18 18 17 17 17 17 16 16 16 16 16 16 16 16 15 15 15 14 14 14 14 14 14 14 14 14 14 14
23 23 22 22 21 20 20 20 19 19 18 18 18 18 18 18 17 17 17 17 16 16 16 15 16 16 16 15 15 15 15 14 14 14 14 14 14 14 14 14 14 13 13
23 22 22 21 20 20 20 19 19 18 18 18 18 17 17 17 17 17 17 16 16 16 15 15 15 15 15 15 15 15 15 14 14 14 14 14 14 14 14 14 13 13 13
22 21 21 20 20 19 19 19 18 18 18 17 17 17 17 17 17 17 16 16 16 15 15 15 15 15 15 15 15 15 14 14 14 14 14 14 14 14 13 13 13 13 13
21 21 20 20 19 19 19 18 18 18 17 17 17 17 17 17 17 16 16 16 15 15 15 15 15 15 14 14 14 14 14 14 14 13 14 14 14 13 13 13 13 13 13
20 20 19 19 18 18 18 18 18 17 17 17 17 16 16 17 16 16 16 16 16 15 15 15 15 15 14 14 14 14 14 13 13 13 13 13 13 13 13 13 13 13 13
19 19 19 18 18 18 17 17 17 17 17 17 16 16 16 16 16 16 16 16 15 15 15 15 15 15 14 14 14 14 13 13 13 13 13 13 13 13 13 13 13 13 12
Wind_Speed
15 14 13 13 13 12 10 8 7 7 5 3 3 3 2 2 2 3 4 3 2 2 1 1 0 0 1 1 1 1 2 2 1 1 1 1 2 3 3 2 1 3 5
15 14 14 14 14 13 11 9 8 8 6 4 3 3 3 2 3 3 3 3 2 1 2 1 0 1 1 1 0 1 1 1 0 0 1 1 1 2 3 3 3 2 2
17 15 14 14 14 13 12 10 9 8 7 6 4 3 3 1 3 3 2 2 2 1 1 1 1 0 1 1 1 1 1 1 1 0 0 0 1 1 1 2 2 2 1
17 17 16 15 14 14 13 11 9 8 7 6 5 6 4 3 3 3 3 2 2 1 2 2 1 1 1 1 1 1 1 1 2 1 0 1 1 1 1 1 1 2 2
17 18 17 15 14 14 14 12 10 9 8 6 6 5 4 3 3 3 4 2 3 2 2 2 1 1 0 1 0 1 1 2 2 2 1 1 0 2 1 1 2 1 2
15 15 15 14 12 14 13 13 11 9 8 7 6 5 4 4 3 3 4 3 2 2 2 2 1 1 1 0 1 1 1 2 2 3 2 1 1 2 1 1 2 2 2
14 15 15 15 13 13 13 13 13 11 10 9 7 6 5 5 5 4 4 3 2 2 3 2 2 1 1 1 0 1 1 2 2 2 3 2 2 2 1 1 2 2 1
13 15 15 14 13 13 13 13 13 11 11 9 7 6 6 5 4 4 3 3 2 2 3 3 3 2 1 0 0 1 1 1 2 3 3 3 3 3 2 2 2 2 2
11 13 14 14 13 13 12 13 12 11 10 10 8 7 6 5 4 4 4 3 2 3 3 3 3 2 1 1 0 0 1 1 1 2 3 3 3 3 3 2 1 2 3
10 9 10 13 13 13 13 13 13 12 10 9 8 8 7 5 4 4 4 3 2 2 3 3 3 2 2 2 1 1 1 1 1 2 2 3 3 4 3 2 2 2 2
10 10 9 10 11 12 12 13 12 12 11 10 8 7 7 6 5 4 4 3 3 3 3 3 3 3 2 2 1 1 1 1 2 3 2 3 3 3 4 3 2 2 2
8 9 9 10 10 11 10 10 11 12 11 9 8 6 5 5 5 5 4 4 4 4 3 3 3 3 3 2 2 2 2 2 2 3 3 3 4 3 3 4 4 3 3
8 8 8 9 9 9 9 9 9 10 10 9 9 7 7 7 6 5 5 4 4 4 4 3 3 3 2 2 2 2 3 3 3 2 2 3 4 4 3 4 4 4 4
6 8 7 8 8 8 7 7 8 8 9 9 9 8 7 6 6 5 5 4 4 4 4 4 3 4 3 3 3 3 3 3 3 3 2 2 2 3 4 4 3 4 4
7 7 7 7 7 7 7 6 6 6 7 8 8 8 7 6 5 5 5 4 4 5 4 4 3 4 4 3 2 3 4 3 3 3 3 3 1 1 3 4 3 4 4
6 6 7 8 7 7 7 7 6 6 6 7 7 7 6 6 5 5 5 4 4 4 4 4 5 5 4 4 3 3 3 3 3 3 3 3 3 3 4 4 5 5 5
6 7 7 7 6 6 7 7 6 6 7 6 5 6 6 6 5 6 5 5 5 5 5 5 4 4 3 3 3 3 4 4 3 3 3 4 2 1 2 4 6 5 6
5 6 6 8 8 7 6 6 7 6 6 6 6 6 6 5 5 5 5 5 4 4 4 4 4 4 4 4 4 4 5 4 3 3 3 2 2 2 2 3 3 3 3
4 4 5 6 7 7 7 6 7 6 6 6 6 6 5 5 5 5 4 4 4 4 4 4 4 4 3 4 5 4 4 4 4 4 3 3 1 2 2 3 3 3 3
5 5 4 5 7 6 8 7 7 6 6 5 5 5 5 5 5 5 4 4 4 4 4 3 3 4 4 5 5 4 3 3 3 4 3 1 1 1 1 2 3 3 4
5 5 5 5 5 5 6 6 6 6 5 4 4 5 4 5 5 5 4 4 4 4 3 3 3 3 4 5 5 5 3 3 3 3 2 1 1 1 3 4 4 5 4
4 5 5 5 5 5 6 6 5 5 5 4 4 5 5 5 5 5 4 4 4 3 4 4 3 3 4 4 4 5 5 4 4 3 2 1 2 3 5 5 5 5 5
3 3 4 4 4 5 5 6 5 5 5 5 5 5 5 4 5 5 5 5 4 4 4 4 4 3 3 3 4 5 6 6 4 3 3 3 5 6 5 7 7 5 4
4 4 4 4 4 3 4 4 5 5 5 5 4 5 5 5 5 4 5 4 4 3 3 3 3 2 2 2 2 3 4 5 4 4 4 5 7 6 6 5 5 5 4
1 2 3 4 4 3 2 3 4 5 5 5 4 5 5 5 5 4 3 4 3 3 4 3 2 2 2 3 3 3 3 3 3 2 3 3 3 3 3 3 3 3 2
1 2 2 3 4 4 3 3 4 4 5 5 5 4 4 4 5 5 3 2 2 4 4 2 1 1 2 4 4 3 4 3 3 2 3 3 3 3 2 2 2 2 2
Wind_Direction
172 167 167 160 155 155 157 161 162 151 159 169 173 163 159 159 125 123 124 130 145 149 199 360 120 134 73 46 20 357 276 245 218 268 222 197 202 181 173 167 189 185 174
172 168 169 166 163 161 161 163 168 162 174 172 173 168 153 166 128 105 129 146 136 128 134 103 358 74 119 138 78 272 288 285 163 253 270 205 206 224 184 162 190 197 182
175 173 176 172 167 165 170 174 171 166 178 170 171 164 140 140 120 134 148 151 132 144 91 108 64 54 176 145 208 259 279 285 274 219 4 355 2 287 196 186 180 167 192
177 175 178 178 173 171 171 167 166 166 172 178 178 173 171 170 154 152 147 152 154 159 126 112 102 25 24 83 254 117 292 286 292 278 141 211 121 303 311 277 174 164 196
176 177 177 178 178 173 170 166 162 165 169 181 182 186 174 166 153 142 138 166 160 155 132 120 121 130 78 105 322 46 330 317 312 320 308 305 236 264 251 283 271 233 200
172 172 170 170 178 173 168 166 162 165 170 183 181 184 179 169 159 155 157 182 163 163 148 134 129 133 115 29 22 46 311 327 332 330 327 328 299 292 288 269 264 258 234
170 169 170 168 172 171 168 166 164 169 173 180 182 182 181 175 165 177 174 193 178 167 154 152 158 163 171 209 121 82 307 299 314 315 308 309 299 290 289 273 273 274 265
172 173 172 170 171 169 165 163 165 171 176 180 182 179 180 189 184 186 184 198 189 167 152 151 162 176 196 213 91 204 252 268 286 290 299 304 303 302 291 281 290 293 283
171 175 170 170 171 171 168 167 164 170 178 183 180 178 184 189 185 178 194 191 178 176 149 157 161 164 164 173 166 223 280 300 283 290 292 292 297 293 286 287 275 267 284
165 164 168 169 174 175 171 169 166 171 175 180 183 183 183 186 189 184 183 177 170 166 161 166 167 176 181 184 197 226 234 277 278 269 297 308 303 306 302 291 274 262 264
165 165 168 169 170 172 171 172 169 170 175 182 180 178 177 185 187 185 179 176 177 177 171 165 166 169 183 176 186 243 236 254 283 293 294 299 299 306 313 310 299 281 266
161 162 165 168 170 169 172 170 173 176 176 175 170 172 170 175 182 182 177 180 181 183 178 175 178 188 187 182 198 239 262 259 259 279 301 303 295 293 298 303 305 297 286
156 162 165 167 166 162 162 166 175 177 174 172 170 171 182 183 183 184 179 180 182 187 187 181 187 199 194 199 221 229 248 266 267 267 282 294 301 301 296 292 300 298 297
159 161 153 151 150 149 152 159 171 169 170 168 172 174 184 186 184 183 181 182 186 193 193 190 198 201 193 212 232 239 245 252 264 274 276 279 286 293 294 291 300 299 296
171 155 149 142 142 143 148 152 163 165 165 165 172 179 181 180 179 181 180 183 191 196 188 191 205 211 203 213 214 238 244 251 258 260 261 251 238 254 283 293 307 306 299
164 147 145 145 147 150 153 153 161 160 156 161 170 170 170 173 179 183 177 184 192 191 188 199 206 217 218 191 188 224 254 251 254 256 259 247 218 233 251 270 276 273 279
159 150 153 154 158 155 151 157 163 157 155 157 164 163 167 173 178 190 182 191 195 195 198 202 196 200 209 199 196 217 249 248 251 258 262 269 264 239 269 264 271 278 270
163 155 167 162 161 161 154 157 160 157 161 164 166 168 171 176 180 179 183 192 194 198 202 203 199 202 209 192 198 215 239 244 247 251 253 254 269 280 302 287 280 272 281
154 161 175 163 149 158 157 160 167 166 169 172 172 173 174 181 182 179 185 188 189 194 200 196 196 198 203 189 189 199 239 243 248 246 247 245 222 301 315 284 287 293 297
157 156 160 155 153 159 157 163 171 170 176 178 177 174 174 181 183 181 181 188 190 197 204 193 193 194 190 181 179 192 239 249 248 243 218 165 149 268 299 282 280 282 291
154 151 153 151 151 157 155 163 173 175 175 175 175 174 179 185 175 171 182 186 193 197 200 205 204 188 182 178 181 188 232 262 259 258 247 194 173 257 262 264 263 266 281
156 154 142 140 147 158 162 171 169 164 161 169 175 174 181 192 179 172 184 188 188 196 199 210 213 194 179 173 188 203 228 259 274 275 272 239 245 264 263 259 256 267 278
140 152 143 138 143 154 164 173 164 156 161 170 174 174 183 183 167 174 182 188 190 206 211 212 224 216 184 175 186 211 236 250 260 280 291 282 267 263 252 240 247 255 256
142 154 147 147 144 151 163 160 154 157 164 170 175 178 177 176 167 180 188 191 189 199 212 219 231 223 190 180 197 224 238 244 251 265 266 255 253 255 257 254 240 236 242
120 138 147 151 149 142 153 159 150 159 169 174 182 190 189 182 171 172 184 188 187 195 211 223 218 223 219 210 199 210 230 240 244 262 262 251 238 240 237 230 230 239 251
157 156 168 163 158 157 160 161 160 170 176 184 193 203 199 181 174 173 161 91 152 149 149 150 155 160 160 169 176 188 200 210 201 210 240 250 249 253 264 264 248 238 243
Height
1510 1514 1517 1520 1523 1525 1527 1529 1531 1533 1535 1536 1538 1539 1541 1542 1543 1543 1544 1544 1545 1545 1546 1546 1546 1547 1547 1547 1548 1549 1549 1549 1550 1550 1550 1551 1551 1551 1551 1552 1552 1553 1553
1507 1511 1515 1518 1521 1523 1525 1528 1530 1532 1533 1535 1537 1539 1540 1541 1542 1543 1543 1544 1545 1545 1546 1545 1546 1546 1546 1547 1547 1548 1548 1549 1550 1550 1550 1550 1551 1550 1551 1551 1551 1552 1552
1502 1507 1512 1515 1518 1521 1523 1526 1528 1530 1532 1534 1536 1538 1540 1541 1542 1542 1543 1544 1544 1544 1545 1545 1545 1545 1546 1546 1547 1547 1548 1548 1549 1550 1550 1550 1549 1550 1550 1550 1550 1550 1550
1498 1503 1508 1512 1516 1519 1521 1523 1526 1528 1530 1533 1535 1537 1538 1540 1541 1541 1542 1543 1543 1544 1545 1545 1545 1545 1545 1546 1546 1547 1547 1548 1548 1549 1549 1549 1549 1549 1549 1549 1549 1548 1548
1494 1499 1504 1509 1513 1517 1519 1521 1524 1526 1529 1531 1533 1535 1537 1539 1540 1541 1541 1542 1543 1543 1543 1544 1544 1544 1544 1545 1545 1546 1546 1547 1547 1547 1548 1548 1548 1548 1549 1548 1548 1547 1547
1490 1495 1500 1505 1510 1514 1517 1519 1521 1524 1526 1529 1531 1533 1535 1537 1538 1539 1540 1541 1542 1542 1542 1543 1543 1543 1543 1544 1544 1544 1545 1545 1546 1546 1547 1547 1547 1547 1547 1546 1546 1546 1545
1487 1493 1497 1501 1506 1510 1513 1516 1518 1521 1524 1526 1529 1531 1533 1535 1536 1537 1538 1540 1540 1541 1541 1541 1541 1541 1542 1542 1543 1543 1543 1544 1544 1545 1545 1545 1546 1546 1545 1545 1545 1544 1543
1484 1489 1494 1498 1502 1507 1510 1513 1515 1518 1521 1524 1526 1529 1531 1533 1534 1536 1537 1538 1539 1539 1539 1539 1540 1540 1540 1541 1541 1542 1542 1542 1543 1543 1543 1544 1544 1544 1544 1544 1543 1542 1542
1482 1487 1491 1496 1500 1504 1507 1510 1513 1516 1519 1522 1524 1526 1529 1530 1532 1533 1535 1536 1537 1537 1537 1538 1538 1538 1539 1539 1539 1540 1540 1541 1541 1541 1542 1542 1542 1542 1542 1542 1541 1541 1540
1480 1484 1489 1492 1497 1501 1505 1508 1511 1513 1517 1520 1522 1524 1526 1528 1530 1531 1532 1534 1535 1535 1536 1536 1536 1536 1537 1537 1537 1537 1538 1538 1539 1539 1539 1539 1539 1539 1539 1539 1539 1539 1538
1478 1482 1487 1490 1494 1499 1502 1506 1509 1511 1514 1517 1519 1522 1523 1526 1527 1529 1530 1531 1532 1533 1533 1534 1534 1534 1534 1534 1535 1535 1536 1536 1537 1537 1537 1537 1537 1536 1536 1536 1536 1536 1536
1477 1481 1485 1489 1492 1496 1500 1503 1506 1509 1511 1514 1516 1519 1521 1523 1525 1526 1527 1528 1529 1530 1531 1531 1532 1532 1532 1532 1533 1533 1534 1534 1534 1534 1534 1534 1535 1534 1533 1533 1533 1533 1532
1477 1481 1484 1487 1490 1494 1497 1501 1504 1507 1509 1511 1514 1516 1519 1520 1522 1523 1525 1526 1527 1527 1528 1529 1529 1530 1530 1530 1531 1531 1531 1532 1532 1532 1532 1532 1531 1531 1530 1530 1530 1530 1529
1477 1479 1482 1485 1488 1492 1495 1498 1501 1504 1507 1509 1511 1513 1515 1517 1519 1521 1522 1523 1524 1525 1526 1526 1527 1527 1528 1528 1528 1529 1529 1529 1530 1530 1530 1529 1529 1528 1528 1528 1527 1527 1526
1476 1478 1482 1484 1487 1490 1493 1496 1499 1502 1505 1506 1508 1511 1513 1515 1517 1518 1519 1520 1521 1522 1523 1524 1524 1525 1525 1525 1525 1526 1527 1527 1527 1527 1527 1527 1526 1526 1526 1525 1524 1524 1523
1475 1478 1481 1484 1486 1489 1492 1494 1498 1500 1503 1505 1507 1509 1510 1512 1514 1515 1516 1517 1518 1519 1520 1521 1521 1522 1522 1523 1523 1523 1523 1524 1524 1523 1523 1524 1523 1523 1523 1522 1522 1521 1520
1474 1477 1480 1482 1485 1488 1490 1493 1496 1498 1501 1503 1505 1506 1508 1509 1511 1513 1513 1514 1515 1516 1516 1517 1518 1518 1519 1520 1520 1520 1520 1521 1521 1521 1521 1521 1521 1520 1520 1519 1518 1518 1517
1472 1475 1478 1480 1484 1487 1489 1491 1494 1496 1498 1500 1502 1504 1505 1507 1508 1509 1510 1511 1512 1513 1513 1514 1515 1515 1516 1516 1517 1517 1517 1517 1518 1518 1518 1518 1517 1517 1517 1516 1515 1514 1514
1470 1473 1476 1478 1481 1484 1487 1489 1492 1494 1496 1498 1499 1501 1502 1504 1505 1506 1507 1508 1509 1510 1510 1511 1511 1512 1512 1513 1513 1514 1514 1514 1515 1515 1515 1515 1514 1514 1513 1512 1511 1511 1510
1469 1472 1474 1477 1479 1481 1484 1487 1489 1491 1493 1495 1497 1498 1500 1501 1502 1503 1504 1505 1506 1507 1508 1508 1508 1508 1509 1510 1510 1510 1511 1511 1512 1512 1512 1512 1511 1511 1510 1509 1508 1507 1507
1468 1470 1472 1475 1477 1480 1482 1484 1487 1488 1490 1492 1494 1496 1497 1498 1500 1501 1502 1503 1504 1504 1505 1505 1505 1506 1506 1506 1507 1507 1508 1508 1509 1509 1509 1509 1508 1508 1507 1506 1506 1505 1505
1467 1469 1471 1473 1476 1478 1480 1482 1485 1486 1488 1490 1492 1493 1495 1496 1497 1498 1499 1501 1501 1502 1502 1503 1503 1503 1503 1503 1504 1504 1505 1505 1506 1506 1506 1505 1505 1505 1504 1504 1504 1503 1502
1466 1468 1470 1473 1475 1477 1478 1481 1482 1484 1486 1488 1489 1490 1492 1493 1494 1495 1497 1498 1499 1499 1500 1501 1500 1500 1500 1500 1501 1501 1502 1502 1502 1502 1503 1503 1502 1502 1501 1501 1501 1501 1500
1465 1468 1469 1471 1473 1475 1477 1479 1481 1482 1484 1485 1487 1488 1489 1491 1492 1493 1494 1495 1496 1496 1497 1498 1498 1498 1498 1497 1497 1497 1497 1498 1498 1499 1499 1499 1499 1499 1499 1498 1498 1498 1498
1465 1467 1469 1470 1472 1474 1475 1477 1478 1480 1481 1483 1485 1486 1488 1489 1490 1491 1492 1492 1493 1494 1495 1494 1495 1495 1495 1494 1494 1494 1494 1494 1495 1495 1496 1496 1496 1496 1496 1496 1496 1496 1495
1465 1467 1468 1470 1471 1472 1474 1475 1477 1478 1479 1481 1483 1485 1486 1487 1488 1489 1489 1490 1491 1491 1492 1492 1493 1492 1493 1492 1492 1492 1492 1492 1493 1493 1493 1493 1493 1494 1493 1493 1493 1493 1492